Regional Weather Roundup
Issued by NWS Northern Indiana

Home | Current Version | Previous Version | Graphics & Text | Print | Product List | Glossary On
Versions: 1 2 3 4 5 6 7 8 9 10 11 12 13 14 15 16 17 18 19 20 21 22 23 24 25 26 27 28 29 30 31 32 33 34 35 36 37 38 39 40 41 42 43 44 45 46 47 48 49 50
272
ASUS43 KIWX 191410
RWRIWX

KIWX WEATHER ROUNDUP
NATIONAL WEATHER SERVICE NORTHERN INDIANA
900 AM EST THU JAN 19 2017

NOTE: "FAIR" INDICATES FEW OR NO CLOUDS BELOW 12,000 FEET WITH NO
SIGNIFICANT WEATHER AND/OR OBSTRUCTIONS TO VISIBILITY.

* THESE STATIONS ARE NOT UNDER NWS QUALITY CONTROL. THEY ALSO MAY NOT
  REPORT WEATHER SUCH AS PRECIPITATION OR FOG.

INZ001>027-191500-
NORTHERN INDIANA

CITY           SKY/WX    TMP DP  RH WIND       PRES   REMARKS
GARY*          CLOUDY    36  34  93 SE5       30.03S FOG
VALPARAISO     FOG       35  35 100 S5        30.03R VSB 1/4 WCI  31
LAPORTE*       FOG       34  34 100 S7        30.03R VSB 1/4 WCI  28
KNOX*          CLOUDY    34  28  80 S5        30.03S WCI  30
SOUTH BEND     FOG       34  33  96 SE8       30.04F VSB 1   WCI  27
ELKHART*       FOG       34  32  93 SW6       30.04S VSB 1   WCI  29
GOSHEN         CLOUDY    35  32  88 SE5       30.04F FOG     WCI  31
ROCHESTER*     CLOUDY    36  36 100 SE7       30.05F FOG
WARSAW*        CLOUDY    34  30  86 S3        30.05R HAZE
FORT WAYNE     CLOUDY    35  32  88 S3        30.06F FOG
PERU/GRISSOM   CLOUDY    35  35 100 SE9       30.03F FOG     WCI  27
MARION*        CLOUDY    34  34 100 S6        30.06S FOG     WCI  29

$$
INZ028>050-191500-
CENTRAL INDIANA

CITY           SKY/WX    TMP DP  RH WIND       PRES   REMARKS
LAFAYETTE      CLOUDY    34  34 100 E6        30.02F FOG     WCI  29
KOKOMO*        CLOUDY    34  34 100 SE10      30.05F FOG     WCI  26
MUNCIE*        CLOUDY    37  34  89 S3        30.07S FOG
INDIANAPOLIS   CLOUDY    37  35  92 E8        30.04S FOG

$$
MIZ043>046-050>051-056>058-064>065-071>073-077>080-191500-
SOUTHWEST LOWER MICHIGAN

CITY           SKY/WX    TMP DP  RH WIND       PRES   REMARKS
BATTLE CREEK   CLOUDY    33  32  96 SW5       30.06R FOG     WCI  29
BENTON HARBOR  CLOUDY    36  34  92 SE7       30.03F FOG
COLDWATER*     CLOUDY    33  33 100 CALM      30.05F FOG
HILLSDALE*     CLOUDY    32  30  93 W3        30.04F FOG
HOLLAND        CLOUDY    37  34  89 S7        30.04R
GRAND RAPIDS   CLOUDY    36  33  89 S7        30.04R FOG
KALAMAZOO      CLOUDY    34  31  88 S5        30.05S FOG     WCI  30
STURGIS*       CLOUDY    33  32  96 S3        30.04F FOG
THREE RIVERS*  CLOUDY    33  32  96 CALM      30.05F FOG

$$
OHZ001>008-015>018-024>025-191500-
NORTHWEST OHIO

CITY           SKY/WX    TMP DP  RH WIND       PRES   REMARKS
DEFIANCE       CLOUDY    33  32  96 VRB3      30.08S
FINDLAY        CLOUDY    37  32  82 SW5       30.08R
TOLEDO EXPRESS CLOUDY    34  34 100 SW6       30.09R WCI  29
TOLEDO METCALF CLOUDY    35  34  96 SW7       30.09R FOG     WCI  29
LIMA           CLOUDY    35  35 100 CALM      30.06S

$$
AND FOR LAKE MICHIGAN COASTAL AND OPEN LAKE BUOY OBSERVATIONS

STATION/POSITION TEMP    WIND        PRES    VSBY  WAVE
                 AIR SEA DIR/SP/G                  HT/PER
                 (F)     (DEG/KT/KT) (MB)    (MI)  (FT/S)
CALUMET HARBOR    35     180/  8/ 12 1015.9R
BURNS HARBOR      35     180/  7/ 12 1017.3F

$$
&&




USA.gov is the U.S. government's official web portal to all federal, state and local government web resources and services.